Location: ??????????
(54.8537°N, 38.8755°E)
Time: 02:22:51
(UTC+00:00)

Vanguard 2 Rocket - Pass Details

Date: 22 September 2024
Orbit: 553 x 3298 km, 32.9° (Epoch: 10 October)

Event Time Altitude Azimuth Distance (km) Brightness Sun altitude
Rises 22:49:24 0° 233° (SW) 4,085 - -32.1°
Reaches altitude 10° 22:52:35 10° 217° (SW) 3,488 - -31.9°
Maximum altitude 22:59:11 22° 172° (S) 3,362 - -31.4°
Exits shadow 23:02:24 20° 152° (SSE) 3,819 9.7 -31.2°
Drops below altitude 10° 23:08:29 10° 130° (SE) 5,119 10.6 -30.7°
Sets 23:14:39 0° 118° (ESE) 6,601 11.4 -30.3°
